Weather History for Rawlins, WY

Change the Weather History Date:

Wednesday, July 31, 2013

  Actual Average Record
Temperature  
Mean Temperature 67 °F 68 °F  
Max Temperature 86 °F 84 °F 95 °F (2000)
Min Temperature 48 °F 51 °F 44 °F (1990)
Degree Days  
Heating Degree Days 0 1  
Month to date heating degree days 0 38  
Since 1 June heating degree days 101 225  
Since 1 July heating degree days 0 35  
Cooling Degree Days 2 3  
Month to date cooling degree days 152 98  
Year to date cooling degree days 200 117  
Since 1 June cooling degree days 199 117  
Growing Degree Days 16 (Base 50)    
Moisture  
Dew Point 40 °F    
Average Humidity 50    
Maximum Humidity 86    
Minimum Humidity 14    
Precipitation  
Precipitation 0.00 in 0.03 in 0.51 in (1999)
Month to date precipitation 1.13 0.84  
Year to date precipitation 3.23 5.79  
Sea Level Pressure  
Sea Level Pressure 30.13 in    
Wind  
Wind Speed 8 mph (NNW)    
Max Wind Speed 40 mph    
Max Gust Speed 52 mph    
Visibility 10 miles    
Events Thunderstorm    
T = Trace of Precipitation, MM = Missing Value Source: NWS Daily Summary

Daily Weather History Graph

Daily Weather History Graph

Search for Another Location

Airport:

Trip Planner

Search our weather history database for the weather conditions in past years. The results will help you decide how hot, cold, wet, or windy it might be!

Date:

Astronomy

Jul. 31, 2013 Rise Set
Actual Time 6:02 AM MDT 8:27 PM MDT
Civil Twilight 5:30 AM MDT 8:59 PM MDT
Nautical Twilight 4:51 AM MDT 9:37 PM MDT
Astronomical Twilight 4:07 AM MDT 10:21 PM MDT
Moon 12:59 AM MDT 3:46 PM MDT
Length of Visible Light 15h 28m
Length of Day
14h 25m
Waning Crescent, 31% of the Moon is Illuminated
Jul 31
Waning Crescent
Aug 6
New
Aug 14
First Quarter
Aug 20
Full
Aug 28
Last Quarter

Hourly Weather History & Observations

Time (MDT) Temp. Dew Point Humidity Pressure Visibility Wind Dir Wind Speed Gust Speed Precip Events Conditions
1:53 AM 53.1 °F 48.9 °F 86% 30.14 in 10.0 mi Calm Calm - N/A   Clear
2:53 AM 53.1 °F 48.0 °F 83% 30.14 in 10.0 mi NNE 6.9 mph - N/A   Clear
3:53 AM 50.0 °F 46.0 °F 86% 30.14 in 10.0 mi Calm Calm - N/A   Clear
4:53 AM 51.1 °F 45.0 °F 80% 30.15 in 10.0 mi Calm Calm - N/A   Clear
5:53 AM 48.9 °F 44.1 °F 83% 30.16 in 10.0 mi Calm Calm - N/A   Clear
6:53 AM 52.0 °F 46.9 °F 83% 30.17 in 10.0 mi NNW 3.5 mph - N/A   Clear
7:53 AM 59.0 °F 46.0 °F 62% 30.20 in 10.0 mi East 3.5 mph - N/A   Clear
8:53 AM 63.0 °F 46.0 °F 54% 30.19 in 10.0 mi Calm Calm - N/A   Clear
9:53 AM 70.0 °F 44.1 °F 39% 30.17 in 10.0 mi Calm Calm - N/A   Clear
10:53 AM 75.9 °F 43.0 °F 31% 30.13 in 10.0 mi SSW 5.8 mph - N/A   Clear
11:53 AM 82.0 °F 39.9 °F 22% 30.09 in 10.0 mi WSW 10.4 mph - N/A   Clear
12:53 PM 82.0 °F 33.1 °F 17% 30.08 in 10.0 mi SW 8.1 mph - N/A   Clear
1:29 PM 84.2 °F 33.8 °F 16% 30.36 in 10.0 mi WNW 8.1 mph 19.6 mph N/A   Partly Cloudy
1:53 PM 80.1 °F 32.0 °F 17% 30.09 in 10.0 mi West 33.4 mph 47.2 mph N/A   Partly Cloudy
2:05 PM 77.0 °F 33.8 °F 21% 30.38 in 10.0 mi West 21.9 mph 51.8 mph N/A Thunderstorm Mostly Cloudy
2:26 PM 75.2 °F 35.6 °F 24% 30.36 in 10.0 mi NW 27.6 mph 35.7 mph N/A   Mostly Cloudy
2:53 PM 82.9 °F 32.0 °F 16% 30.07 in 10.0 mi WNW 10.4 mph - N/A   Partly Cloudy
3:53 PM 84.9 °F 32.0 °F 15% 30.04 in 10.0 mi WNW 11.5 mph 24.2 mph N/A   Partly Cloudy
4:53 PM 82.9 °F 32.0 °F 16% 30.02 in 10.0 mi West 15.0 mph 20.7 mph N/A   Clear
5:53 PM 84.0 °F 30.0 °F 14% 30.01 in 10.0 mi SW 8.1 mph - N/A   Clear
6:50 PM 75.2 °F 41.0 °F 29% 30.29 in 10.0 mi NE 21.9 mph - N/A   Mostly Cloudy
6:53 PM 75.0 °F 41.0 °F 29% 30.03 in 10.0 mi NE 20.7 mph 27.6 mph N/A   Mostly Cloudy
7:53 PM 72.0 °F 42.1 °F 34% 30.04 in 10.0 mi East 16.1 mph - N/A   Clear
8:53 PM 70.0 °F 41.0 °F 35% 30.04 in 10.0 mi NE 11.5 mph - N/A   Mostly Cloudy
9:53 PM 66.9 °F 42.1 °F 40% 30.02 in 10.0 mi ENE 13.8 mph - N/A   Clear
10:53 PM 64.9 °F 43.0 °F 45% 30.00 in 10.0 mi NNE 10.4 mph - N/A   Clear
11:53 PM 63.0 °F 44.1 °F 50% 29.97 in 10.0 mi ENE 5.8 mph - N/A   Clear